Time,TemperatureF,DewpointF,PressureIn,WindDirection,WindDirectionDegrees,WindSpeedMPH,WindSpeedGustMPH,Humidity,HourlyPrecipIn,Conditions,Clouds,dailyrainin,SoftwareType,DateUTC
2013-02-14 00:00:00,34.0,28.2,29.73,NW,310,0.0,0.0,79,0.00,,,11.78,meteohub,2013-02-14 05:00:00,
2013-02-14 00:01:00,34.0,28.2,29.73,NW,310,0.0,0.0,79,0.00,,,11.78,meteohub,2013-02-14 05:01:00,
2013-02-14 00:03:00,34.0,28.2,29.73,NW,310,0.0,0.0,79,0.00,,,11.78,meteohub,2013-02-14 05:03:00,
2013-02-14 00:08:00,33.8,28.0,29.72,NW,310,0.0,0.0,79,0.00,,,11.78,meteohub,2013-02-14 05:08:00,
2013-02-14 00:13:00,33.8,28.0,29.73,NW,310,0.0,0.0,79,0.00,,,11.78,meteohub,2013-02-14 05:13:00,
2013-02-14 00:18:00,33.8,28.2,29.73,NW,310,0.0,0.0,80,0.00,,,11.78,meteohub,2013-02-14 05:18:00,
2013-02-14 00:23:00,33.8,28.2,29.72,NW,310,0.0,0.0,80,0.00,,,11.78,meteohub,2013-02-14 05:23:00,
2013-02-14 00:28:00,33.6,28.4,29.72,NW,310,0.0,0.0,81,0.00,,,11.78,meteohub,2013-02-14 05:28:00,
2013-02-14 00:33:00,33.6,28.4,29.72,NW,310,0.0,0.0,81,0.00,,,11.78,meteohub,2013-02-14 05:33:00,
2013-02-14 00:39:00,33.6,28.8,29.72,NW,310,0.0,0.0,82,0.00,,,11.78,meteohub,2013-02-14 05:39:00,
2013-02-14 00:44:00,33.4,28.8,29.73,NW,310,0.0,0.0,83,0.00,,,11.78,meteohub,2013-02-14 05:44:00,
2013-02-14 00:49:00,33.4,29.1,29.73,NW,310,0.0,0.0,84,0.00,,,11.78,meteohub,2013-02-14 05:49:00,
2013-02-14 00:54:00,33.3,29.3,29.73,NW,310,0.0,0.0,85,0.00,,,11.78,meteohub,2013-02-14 05:54:00,
2013-02-14 00:59:00,32.9,29.5,29.73,NW,310,0.0,0.0,87,0.00,,,11.78,meteohub,2013-02-14 05:59:00,
2013-02-14 01:04:00,32.5,29.3,29.73,NW,310,0.0,0.0,88,0.00,,,11.78,meteohub,2013-02-14 06:04:00,
2013-02-14 01:10:00,32.5,29.7,29.73,NW,310,0.0,0.0,89,0.00,,,11.78,meteohub,2013-02-14 06:10:00,
2013-02-14 01:15:00,32.4,29.8,29.73,NW,310,0.0,0.0,90,0.00,,,11.78,meteohub,2013-02-14 06:15:00,
2013-02-14 01:20:00,32.2,29.8,29.74,NW,310,0.0,0.0,91,0.00,,,11.78,meteohub,2013-02-14 06:20:00,
2013-02-14 01:25:00,32.0,29.7,29.74,NW,310,0.0,0.0,91,0.00,,,11.78,meteohub,2013-02-14 06:25:00,
2013-02-14 01:30:00,31.8,29.5,29.73,NW,310,0.0,0.0,91,0.00,,,11.78,meteohub,2013-02-14 06:30:00,
2013-02-14 01:35:00,31.8,29.5,29.73,NW,310,0.0,0.0,91,0.00,,,11.78,meteohub,2013-02-14 06:35:00,
2013-02-14 01:40:00,31.6,29.7,29.73,NW,310,0.0,0.0,92,0.00,,,11.78,meteohub,2013-02-14 06:40:00,
2013-02-14 01:46:00,31.5,29.5,29.73,NW,310,0.0,0.0,92,0.00,,,11.78,meteohub,2013-02-14 06:46:00,
2013-02-14 01:51:00,31.5,29.5,29.73,NW,310,0.0,0.0,92,0.00,,,11.78,meteohub,2013-02-14 06:51:00,
2013-02-14 01:56:00,31.5,29.5,29.73,NW,310,0.0,0.0,92,0.00,,,11.78,meteohub,2013-02-14 06:56:00,
2013-02-14 02:01:00,31.3,29.5,29.73,NW,310,0.0,0.0,93,0.00,,,11.78,meteohub,2013-02-14 07:01:00,
2013-02-14 02:06:00,31.3,29.5,29.73,NW,310,0.0,0.0,93,0.00,,,11.78,meteohub,2013-02-14 07:06:00,
2013-02-14 02:11:00,31.1,29.3,29.73,NW,310,0.0,0.0,93,0.00,,,11.78,meteohub,2013-02-14 07:11:00,
2013-02-14 02:16:00,31.1,29.3,29.73,NW,310,0.0,0.0,93,0.00,,,11.78,meteohub,2013-02-14 07:16:00,
2013-02-14 02:22:00,31.1,29.3,29.74,NW,310,0.0,0.0,93,0.00,,,11.78,meteohub,2013-02-14 07:22:00,
2013-02-14 02:27:00,30.9,29.1,29.74,NW,310,0.0,0.0,93,0.00,,,11.78,meteohub,2013-02-14 07:27:00,
2013-02-14 02:32:00,30.9,29.1,29.74,NW,310,0.0,0.0,93,0.00,,,11.78,meteohub,2013-02-14 07:32:00,
2013-02-14 02:37:00,30.9,29.1,29.74,NW,310,0.0,0.0,93,0.00,,,11.78,meteohub,2013-02-14 07:37:00,
2013-02-14 02:42:00,30.9,29.1,29.75,NW,310,0.0,0.0,93,0.00,,,11.78,meteohub,2013-02-14 07:42:00,
2013-02-14 02:47:00,30.7,28.9,29.75,NW,310,0.0,0.0,93,0.00,,,11.78,meteohub,2013-02-14 07:47:00,
2013-02-14 02:52:00,30.9,29.1,29.75,NW,310,0.0,0.0,93,0.00,,,11.78,meteohub,2013-02-14 07:52:00,
2013-02-14 02:57:00,30.9,29.1,29.75,NW,310,0.0,0.0,93,0.00,,,11.78,meteohub,2013-02-14 07:57:00,
2013-02-14 03:02:00,30.9,29.1,29.75,NW,310,0.0,0.0,93,0.00,,,11.78,meteohub,2013-02-14 08:02:00,
2013-02-14 03:07:00,30.9,28.9,29.75,North,-999,-999.0,0.0,92,0.00,,,11.78,meteohub,2013-02-14 08:07:00,
2013-02-14 03:12:00,30.7,28.8,29.75,NW,310,0.0,0.0,92,0.00,,,11.78,meteohub,2013-02-14 08:12:00,
2013-02-14 03:17:00,30.7,28.8,29.75,NW,310,0.0,0.0,92,0.00,,,11.78,meteohub,2013-02-14 08:17:00,
2013-02-14 03:22:00,30.6,28.6,29.76,NW,310,0.0,0.0,92,0.00,,,11.78,meteohub,2013-02-14 08:22:00,
2013-02-14 03:27:00,30.6,28.6,29.77,NW,310,0.0,0.0,92,0.00,,,11.78,meteohub,2013-02-14 08:27:00,
2013-02-14 03:32:00,30.6,28.6,29.76,NW,310,0.0,0.0,92,0.00,,,11.78,meteohub,2013-02-14 08:32:00,
2013-02-14 03:37:00,30.6,28.6,29.77,NW,310,0.0,0.0,92,0.00,,,11.78,meteohub,2013-02-14 08:37:00,
2013-02-14 03:42:00,30.6,28.6,29.77,NW,310,0.0,0.0,92,0.00,,,11.78,meteohub,2013-02-14 08:42:00,
2013-02-14 03:47:00,30.6,28.8,29.77,NW,310,0.0,0.0,93,0.00,,,11.78,meteohub,2013-02-14 08:47:00,
2013-02-14 03:52:00,30.6,28.8,29.77,NW,310,0.0,0.0,93,0.00,,,11.78,meteohub,2013-02-14 08:52:00,
2013-02-14 03:57:00,30.6,28.8,29.78,NW,310,0.0,0.0,93,0.00,,,11.78,meteohub,2013-02-14 08:57:00,
2013-02-14 04:02:00,30.6,28.8,29.78,NW,310,0.0,0.0,93,0.00,,,11.78,meteohub,2013-02-14 09:02:00,
2013-02-14 04:07:00,30.6,28.8,29.78,NW,310,0.0,0.0,93,0.00,,,11.78,meteohub,2013-02-14 09:07:00,
2013-02-14 04:12:00,30.7,28.9,29.78,NW,310,0.0,0.0,93,0.00,,,11.78,meteohub,2013-02-14 09:12:00,
2013-02-14 04:17:00,30.7,28.8,29.79,NW,310,0.0,0.0,92,0.00,,,11.78,meteohub,2013-02-14 09:17:00,
2013-02-14 04:22:00,30.6,28.6,29.79,NW,310,0.0,0.0,92,0.00,,,11.78,meteohub,2013-02-14 09:22:00,
2013-02-14 04:27:00,30.6,28.6,29.80,NW,310,0.0,0.0,92,0.00,,,11.78,meteohub,2013-02-14 09:27:00,
2013-02-14 04:32:00,30.6,28.6,29.79,NW,310,0.0,0.0,92,0.00,,,11.78,meteohub,2013-02-14 09:32:00,
2013-02-14 04:37:00,30.4,28.4,29.80,NW,310,0.0,0.0,92,0.00,,,11.78,meteohub,2013-02-14 09:37:00,
2013-02-14 04:42:00,30.4,28.6,29.80,NW,310,0.0,0.0,93,0.00,,,11.78,meteohub,2013-02-14 09:42:00,
2013-02-14 04:47:00,30.4,28.4,29.80,NW,310,0.0,0.0,92,0.00,,,11.78,meteohub,2013-02-14 09:47:00,
2013-02-14 04:52:00,30.4,28.6,29.79,NW,310,0.0,0.0,93,0.00,,,11.78,meteohub,2013-02-14 09:52:00,
2013-02-14 04:57:00,30.2,28.4,29.79,NW,310,0.0,0.0,93,0.00,,,11.78,meteohub,2013-02-14 09:57:00,
2013-02-14 05:02:00,30.0,28.0,29.79,NW,310,0.0,0.0,92,0.00,,,11.78,meteohub,2013-02-14 10:02:00,
2013-02-14 05:07:00,29.8,27.9,29.79,NW,310,0.0,0.0,92,0.00,,,11.78,meteohub,2013-02-14 10:07:00,
2013-02-14 05:12:00,29.8,27.9,29.79,NW,310,0.0,0.0,92,0.00,,,11.78,meteohub,2013-02-14 10:12:00,
2013-02-14 05:17:00,29.7,27.9,29.80,NW,310,0.0,0.0,93,0.00,,,11.78,meteohub,2013-02-14 10:17:00,
2013-02-14 05:22:00,29.7,27.9,29.80,NW,310,0.0,0.0,93,0.00,,,11.78,meteohub,2013-02-14 10:22:00,
2013-02-14 05:27:00,29.7,27.9,29.80,NW,310,0.0,0.0,93,0.00,,,11.78,meteohub,2013-02-14 10:27:00,
2013-02-14 05:32:00,29.7,27.9,29.80,NW,310,0.0,0.0,93,0.00,,,11.78,meteohub,2013-02-14 10:32:00,
2013-02-14 05:37:00,29.7,27.9,29.81,NW,310,0.0,0.0,93,0.00,,,11.78,meteohub,2013-02-14 10:37:00,
2013-02-14 05:42:00,29.7,27.9,29.81,NW,310,0.0,0.0,93,0.00,,,11.78,meteohub,2013-02-14 10:42:00,
2013-02-14 05:47:00,29.5,27.7,29.82,NW,310,0.0,0.0,93,0.00,,,11.78,meteohub,2013-02-14 10:47:00,
2013-02-14 05:52:00,29.3,27.5,29.82,NW,310,0.0,0.0,93,0.00,,,11.78,meteohub,2013-02-14 10:52:00,
2013-02-14 05:57:00,29.1,27.3,29.82,NW,310,0.0,0.0,93,0.00,,,11.78,meteohub,2013-02-14 10:57:00,
2013-02-14 06:02:00,29.1,27.7,29.82,NW,310,0.0,0.0,94,0.00,,,11.78,meteohub,2013-02-14 11:02:00,
2013-02-14 06:07:00,29.1,27.3,29.82,NW,310,0.0,0.0,93,0.00,,,11.78,meteohub,2013-02-14 11:07:00,
2013-02-14 06:12:00,29.1,27.3,29.83,NW,310,0.0,0.0,93,0.00,,,11.78,meteohub,2013-02-14 11:12:00,
2013-02-14 06:17:00,28.9,27.5,29.83,NW,310,0.0,0.0,94,0.00,,,11.78,meteohub,2013-02-14 11:17:00,
2013-02-14 06:22:00,29.1,27.7,29.83,NW,310,0.0,0.0,94,0.00,,,11.78,meteohub,2013-02-14 11:22:00,
2013-02-14 06:27:00,28.9,27.1,29.82,NW,310,0.0,0.0,93,0.00,,,11.78,meteohub,2013-02-14 11:27:00,
2013-02-14 06:32:00,28.9,27.1,29.83,NW,310,0.0,0.0,93,0.00,,,11.78,meteohub,2013-02-14 11:32:00,
2013-02-14 06:37:00,28.9,27.1,29.84,NW,310,0.0,0.0,93,0.00,,,11.78,meteohub,2013-02-14 11:37:00,
2013-02-14 06:42:00,28.6,26.8,29.84,NW,310,0.0,0.0,93,0.00,,,11.78,meteohub,2013-02-14 11:42:00,
2013-02-14 06:47:00,28.6,26.8,29.84,NW,310,0.0,0.0,93,0.00,,,11.78,meteohub,2013-02-14 11:47:00,
2013-02-14 06:52:00,28.8,27.0,29.84,NW,310,0.0,0.0,93,0.00,,,11.78,meteohub,2013-02-14 11:52:00,
2013-02-14 06:57:00,28.8,27.0,29.85,NW,310,0.0,0.0,93,0.00,,,11.78,meteohub,2013-02-14 11:57:00,
2013-02-14 07:02:00,28.9,27.1,29.85,NW,310,0.0,0.0,93,0.00,,,11.78,meteohub,2013-02-14 12:02:00,
2013-02-14 07:07:00,28.9,27.1,29.85,NW,310,0.0,0.0,93,0.00,,,11.78,meteohub,2013-02-14 12:07:00,
2013-02-14 07:12:00,28.8,26.8,29.86,NW,310,0.0,0.0,92,0.00,,,11.78,meteohub,2013-02-14 12:12:00,
2013-02-14 07:17:00,28.4,26.1,29.86,NW,310,0.0,0.0,91,0.00,,,11.78,meteohub,2013-02-14 12:17:00,
2013-02-14 07:22:00,28.0,26.1,29.86,NW,310,0.0,0.0,92,0.00,,,11.78,meteohub,2013-02-14 12:22:00,
2013-02-14 07:27:00,27.9,25.9,29.87,NW,310,0.0,0.0,92,0.00,,,11.78,meteohub,2013-02-14 12:27:00,
2013-02-14 07:32:00,27.9,26.1,29.87,NW,310,0.0,0.0,93,0.00,,,11.78,meteohub,2013-02-14 12:32:00,
2013-02-14 07:37:00,28.0,26.6,29.87,NW,310,0.0,0.0,94,0.00,,,11.78,meteohub,2013-02-14 12:37:00,
2013-02-14 07:42:00,28.2,26.8,29.88,NW,310,0.0,0.0,94,0.00,,,11.78,meteohub,2013-02-14 12:42:00,
2013-02-14 07:47:00,28.6,27.1,29.88,NW,310,0.0,0.0,94,0.00,,,11.78,meteohub,2013-02-14 12:47:00,
2013-02-14 07:52:00,28.9,27.5,29.88,NW,310,0.0,0.0,94,0.03,,,11.81,meteohub,2013-02-14 12:52:00,
2013-02-14 07:57:00,29.5,27.7,29.88,NW,310,0.0,0.0,93,1.06,,,12.84,meteohub,2013-02-14 12:57:00,
2013-02-14 08:02:00,29.8,27.9,29.88,NW,310,0.0,0.0,92,1.66,,,13.44,meteohub,2013-02-14 13:02:00,
2013-02-14 08:07:00,30.4,28.0,29.89,NW,310,0.0,0.0,91,3.22,,,15.00,meteohub,2013-02-14 13:07:00,
2013-02-14 08:12:00,30.9,28.6,29.89,NW,310,0.0,0.0,91,3.94,,,15.72,meteohub,2013-02-14 13:12:00,
2013-02-14 08:17:00,31.6,28.6,29.90,NW,310,0.0,0.0,88,5.26,,,17.04,meteohub,2013-02-14 13:17:00,
2013-02-14 08:22:00,32.0,28.6,29.91,NW,310,0.0,0.0,87,6.82,,,18.60,meteohub,2013-02-14 13:22:00,
2013-02-14 08:27:00,32.4,28.6,29.91,NW,310,0.0,0.0,86,7.54,,,19.32,meteohub,2013-02-14 13:27:00,
2013-02-14 08:32:00,33.1,29.1,29.91,NW,310,0.0,0.0,85,8.98,,,20.76,meteohub,2013-02-14 13:32:00,
2013-02-14 08:37:00,33.4,28.8,29.91,NW,310,0.0,0.0,83,10.30,,,22.08,meteohub,2013-02-14 13:37:00,
2013-02-14 08:42:00,34.0,28.4,29.91,NW,310,0.0,0.0,80,11.14,,,22.92,meteohub,2013-02-14 13:42:00,
2013-02-14 08:47:00,34.3,28.6,29.91,NW,310,0.0,0.0,79,12.58,,,24.36,meteohub,2013-02-14 13:47:00,
2013-02-14 08:52:00,34.7,28.2,29.91,NW,310,0.0,0.0,77,13.13,,,25.08,meteohub,2013-02-14 13:52:00,
2013-02-14 08:57:00,35.2,28.8,29.91,NW,310,0.0,0.0,77,13.44,,,26.40,meteohub,2013-02-14 13:57:00,
2013-02-14 09:02:00,35.6,28.4,29.91,NW,310,0.0,0.0,75,13.92,,,27.96,meteohub,2013-02-14 14:02:00,
2013-02-14 09:07:00,36.1,28.6,29.92,NW,310,0.0,0.0,74,13.32,,,28.68,meteohub,2013-02-14 14:07:00,
2013-02-14 09:12:00,36.7,28.6,29.92,NW,310,0.0,0.0,72,13.68,,,30.12,meteohub,2013-02-14 14:12:00,
2013-02-14 09:17:00,36.9,28.0,29.92,NW,310,0.0,0.0,70,13.80,,,31.44,meteohub,2013-02-14 14:17:00,
2013-02-14 09:22:00,37.2,27.7,29.92,NW,310,0.0,0.0,68,13.32,,,32.16,meteohub,2013-02-14 14:22:00,
2013-02-14 09:27:00,37.9,28.0,29.92,NW,310,0.0,0.0,67,13.60,,,33.64,meteohub,2013-02-14 14:27:00,
2013-02-14 09:32:00,38.5,28.0,29.92,NW,310,0.0,0.0,66,13.36,,,34.48,meteohub,2013-02-14 14:32:00,
2013-02-14 09:37:00,38.7,27.5,29.92,NW,310,0.0,0.0,64,13.60,,,35.92,meteohub,2013-02-14 14:37:00,
2013-02-14 09:42:00,38.5,27.0,29.92,NW,310,0.0,0.0,63,13.04,,,36.56,meteohub,2013-02-14 14:42:00,
2013-02-14 09:47:00,38.1,27.0,29.92,NW,310,0.0,0.0,64,13.40,,,38.00,meteohub,2013-02-14 14:47:00,
2013-02-14 09:52:00,38.8,27.7,29.92,NW,310,0.0,0.0,64,13.64,,,39.44,meteohub,2013-02-14 14:52:00,
2013-02-14 09:57:00,39.6,28.0,29.93,NW,310,0.0,0.0,63,14.00,,,40.16,meteohub,2013-02-14 14:57:00,
2013-02-14 10:02:00,39.6,27.1,29.93,NW,310,0.0,0.0,61,13.48,,,41.68,meteohub,2013-02-14 15:02:00,
2013-02-14 10:07:00,39.4,27.1,29.93,NW,310,0.0,0.0,61,13.76,,,43.16,meteohub,2013-02-14 15:07:00,
2013-02-14 10:12:00,39.0,26.8,29.92,NW,310,0.0,0.0,61,13.40,,,43.88,meteohub,2013-02-14 15:12:00,
2013-02-14 10:17:00,38.8,27.3,29.93,NW,310,0.0,0.0,63,13.68,,,45.36,meteohub,2013-02-14 15:17:00,
2013-02-14 10:22:00,39.2,27.7,29.93,NW,310,0.0,0.0,63,13.32,,,46.08,meteohub,2013-02-14 15:22:00,
2013-02-14 10:27:00,39.4,26.2,29.93,NW,310,0.0,0.0,59,13.64,,,47.64,meteohub,2013-02-14 15:27:00,
2013-02-14 10:32:00,39.6,26.4,29.93,NW,310,0.0,0.0,59,13.76,,,48.96,meteohub,2013-02-14 15:32:00,
2013-02-14 10:37:00,40.3,27.5,29.93,NW,310,0.0,0.0,60,13.28,,,49.68,meteohub,2013-02-14 15:37:00,
2013-02-14 10:42:00,40.3,26.2,29.93,NW,310,0.0,0.0,57,13.60,,,51.12,meteohub,2013-02-14 15:42:00,
2013-02-14 10:47:00,40.3,25.9,29.94,NW,310,0.0,0.0,56,13.84,,,52.56,meteohub,2013-02-14 15:47:00,
2013-02-14 10:52:00,40.8,25.9,29.94,NW,310,0.0,0.0,55,13.48,,,53.40,meteohub,2013-02-14 15:52:00,
2013-02-14 10:57:00,41.0,25.7,29.94,NW,310,0.0,0.0,54,13.84,,,54.84,meteohub,2013-02-14 15:57:00,
2013-02-14 11:02:00,41.0,26.1,29.94,NW,310,0.0,0.0,55,13.28,,,55.56,meteohub,2013-02-14 16:02:00,
2013-02-14 11:07:00,40.8,25.5,29.94,NW,310,0.0,0.0,54,13.60,,,57.00,meteohub,2013-02-14 16:07:00,
2013-02-14 11:12:00,41.4,26.4,29.94,NW,310,0.0,0.0,55,13.84,,,58.44,meteohub,2013-02-14 16:12:00,
2013-02-14 11:17:00,41.7,25.9,29.94,NW,310,0.0,0.0,53,13.32,,,59.04,meteohub,2013-02-14 16:17:00,
2013-02-14 11:22:00,42.4,25.5,29.94,NW,310,0.0,0.0,51,13.60,,,60.52,meteohub,2013-02-14 16:22:00,
2013-02-14 11:27:00,43.0,26.1,29.94,NW,310,0.0,0.0,51,13.84,,,61.96,meteohub,2013-02-14 16:27:00,
2013-02-14 11:32:00,43.3,25.5,29.94,NW,310,0.0,0.0,49,13.48,,,62.68,meteohub,2013-02-14 16:32:00,
2013-02-14 11:37:00,43.3,25.5,29.94,NW,310,0.0,0.0,49,13.84,,,64.24,meteohub,2013-02-14 16:37:00,
2013-02-14 11:42:00,43.3,25.0,29.93,NW,310,0.0,0.0,48,13.24,,,64.84,meteohub,2013-02-14 16:42:00,
2013-02-14 11:47:00,43.2,25.7,29.93,NW,310,0.0,0.0,50,13.60,,,66.28,meteohub,2013-02-14 16:47:00,
2013-02-14 11:52:00,43.3,25.0,29.93,NW,310,0.0,0.0,48,13.84,,,67.72,meteohub,2013-02-14 16:52:00,
2013-02-14 11:57:00,43.3,24.4,29.93,NW,310,0.0,0.0,47,13.36,,,68.44,meteohub,2013-02-14 16:57:00,
2013-02-14 12:02:00,43.3,24.4,29.93,NW,310,0.0,0.0,47,13.72,,,70.00,meteohub,2013-02-14 17:02:00,
2013-02-14 12:07:00,42.8,25.9,29.93,NW,310,0.0,0.0,51,13.88,,,71.36,meteohub,2013-02-14 17:07:00,
2013-02-14 12:12:00,43.0,25.2,29.93,NW,310,0.0,0.0,49,13.40,,,72.08,meteohub,2013-02-14 17:12:00,
2013-02-14 12:17:00,43.3,25.0,29.93,NW,310,0.0,0.0,48,13.72,,,73.52,meteohub,2013-02-14 17:17:00,
2013-02-14 12:22:00,43.5,24.6,29.93,NW,310,0.0,0.0,47,13.36,,,74.24,meteohub,2013-02-14 17:22:00,
2013-02-14 12:27:00,44.2,25.7,29.92,NW,310,0.0,0.0,48,13.72,,,75.80,meteohub,2013-02-14 17:27:00,
2013-02-14 12:32:00,45.0,27.5,29.92,NW,310,0.0,0.0,50,13.96,,,77.24,meteohub,2013-02-14 17:32:00,
2013-02-14 12:37:00,45.3,25.2,29.92,NW,310,0.0,0.0,45,13.48,,,77.96,meteohub,2013-02-14 17:37:00,
2013-02-14 12:42:00,45.0,25.3,29.92,NW,310,0.0,0.0,46,13.76,,,79.44,meteohub,2013-02-14 17:42:00,
2013-02-14 12:47:00,45.1,25.5,29.92,NW,310,0.0,0.0,46,13.40,,,80.16,meteohub,2013-02-14 17:47:00,
2013-02-14 12:52:00,45.3,27.3,29.92,NW,310,0.0,0.0,49,13.76,,,81.60,meteohub,2013-02-14 17:52:00,
2013-02-14 12:57:00,45.7,28.0,29.92,NW,310,0.0,0.0,50,14.00,,,83.04,meteohub,2013-02-14 17:57:00,
2013-02-14 13:02:00,45.9,27.3,29.92,NW,310,0.0,0.0,48,13.40,,,83.64,meteohub,2013-02-14 18:02:00,
2013-02-14 13:07:00,46.0,27.0,29.91,NW,310,0.0,0.0,47,13.60,,,85.08,meteohub,2013-02-14 18:07:00,
2013-02-14 13:12:00,46.2,25.5,29.91,NW,310,0.0,0.0,44,13.96,,,86.64,meteohub,2013-02-14 18:12:00,
2013-02-14 13:17:00,46.2,26.1,29.91,NW,310,0.0,0.0,45,13.48,,,87.36,meteohub,2013-02-14 18:17:00,
2013-02-14 13:22:00,46.2,26.1,29.91,NW,310,0.0,0.0,45,13.84,,,88.80,meteohub,2013-02-14 18:22:00,
2013-02-14 13:27:00,46.0,27.0,29.91,NW,310,0.0,0.0,47,13.48,,,89.52,meteohub,2013-02-14 18:27:00,
2013-02-14 13:32:00,46.0,27.9,29.92,NW,310,0.0,0.0,49,13.72,,,90.96,meteohub,2013-02-14 18:32:00,
2013-02-14 13:37:00,45.3,27.3,29.92,NW,310,0.0,0.0,49,13.84,,,92.28,meteohub,2013-02-14 18:37:00,
2013-02-14 13:42:00,45.1,27.1,29.92,NW,310,0.0,0.0,49,13.32,,,93.00,meteohub,2013-02-14 18:42:00,
2013-02-14 13:47:00,44.8,26.2,29.92,NW,310,0.0,0.0,48,13.56,,,94.44,meteohub,2013-02-14 18:47:00,
2013-02-14 13:52:00,44.6,26.1,29.92,NW,310,0.0,0.0,48,13.92,,,96.00,meteohub,2013-02-14 18:52:00,
2013-02-14 13:58:00,44.2,26.2,29.92,NW,310,0.0,0.0,49,13.56,,,96.72,meteohub,2013-02-14 18:58:00,
2013-02-14 14:03:00,44.2,26.2,29.92,NW,310,0.0,0.0,49,13.92,,,98.16,meteohub,2013-02-14 19:03:00,
2013-02-14 14:08:00,44.4,26.4,29.92,NW,310,0.0,0.0,49,13.44,,,98.88,meteohub,2013-02-14 19:08:00,
2013-02-14 14:13:00,44.8,27.3,29.92,NW,310,0.0,0.0,50,13.68,,,99.99,meteohub,2013-02-14 19:13:00,
2013-02-14 14:18:00,45.1,26.6,29.93,NW,310,0.0,0.0,48,13.80,,,99.99,meteohub,2013-02-14 19:18:00,
2013-02-14 14:23:00,45.0,25.9,29.93,NW,310,0.0,0.0,47,13.32,,,99.99,meteohub,2013-02-14 19:23:00,
2013-02-14 14:28:00,44.8,26.8,29.93,NW,310,0.0,0.0,49,13.56,,,99.99,meteohub,2013-02-14 19:28:00,
2013-02-14 14:34:00,44.8,25.7,29.94,NW,310,0.0,0.0,47,13.80,,,99.99,meteohub,2013-02-14 19:34:00,
2013-02-14 14:39:00,44.4,25.9,29.94,NW,310,0.0,0.0,48,13.32,,,99.99,meteohub,2013-02-14 19:39:00,
2013-02-14 14:44:00,44.2,25.7,29.95,NW,310,0.0,0.0,48,13.68,,,99.99,meteohub,2013-02-14 19:44:00,
2013-02-14 14:49:00,43.5,25.7,29.94,NW,310,0.0,0.0,49,13.32,,,99.99,meteohub,2013-02-14 19:49:00,
2013-02-14 14:54:00,43.7,26.2,29.94,NW,310,0.0,0.0,50,13.56,,,99.99,meteohub,2013-02-14 19:54:00,
2013-02-14 14:59:00,43.5,25.2,29.93,NW,310,0.0,0.0,48,13.80,,,99.99,meteohub,2013-02-14 19:59:00,
2013-02-14 15:05:00,43.3,25.9,29.94,NW,310,0.0,0.0,50,13.20,,,99.99,meteohub,2013-02-14 20:05:00,
2013-02-14 15:10:00,43.3,27.0,29.94,NW,310,0.0,0.0,52,13.80,,,99.99,meteohub,2013-02-14 20:10:00,
2013-02-14 15:15:00,43.7,27.7,29.94,NW,310,0.0,0.0,53,13.32,,,99.99,meteohub,2013-02-14 20:15:00,
2013-02-14 15:20:00,43.7,26.8,29.94,NW,310,0.0,0.0,51,13.60,,,99.99,meteohub,2013-02-14 20:20:00,
2013-02-14 15:25:00,43.0,26.1,29.94,NW,310,0.0,0.0,51,13.24,,,99.99,meteohub,2013-02-14 20:25:00,
2013-02-14 15:30:00,42.6,25.7,29.94,NW,310,0.0,0.0,51,13.48,,,99.99,meteohub,2013-02-14 20:30:00,
2013-02-14 15:35:00,42.3,25.3,29.95,NW,310,0.0,0.0,51,13.72,,,99.99,meteohub,2013-02-14 20:35:00,
2013-02-14 15:41:00,42.1,25.7,29.95,NW,310,0.0,0.0,52,13.36,,,99.99,meteohub,2013-02-14 20:41:00,
2013-02-14 15:46:00,41.5,25.7,29.95,NW,310,0.0,0.0,53,13.84,,,99.99,meteohub,2013-02-14 20:46:00,
2013-02-14 15:51:00,41.4,25.9,29.95,NW,310,0.0,0.0,54,14.08,,,99.99,meteohub,2013-02-14 20:51:00,
2013-02-14 15:56:00,40.6,25.7,29.95,NW,310,0.0,0.0,55,13.52,,,99.99,meteohub,2013-02-14 20:56:00,
2013-02-14 16:01:00,40.3,25.3,29.96,NW,310,0.0,0.0,55,13.14,,,99.99,meteohub,2013-02-14 21:01:00,
2013-02-14 16:06:00,39.9,25.5,29.96,NW,310,0.0,0.0,56,11.94,,,99.99,meteohub,2013-02-14 21:06:00,
2013-02-14 16:11:00,39.7,25.7,29.96,NW,310,0.0,0.0,57,10.74,,,99.99,meteohub,2013-02-14 21:11:00,
2013-02-14 16:17:00,39.6,26.1,29.96,NW,310,0.0,0.0,58,9.74,,,99.99,meteohub,2013-02-14 21:17:00,
2013-02-14 16:22:00,39.4,25.9,29.96,NW,310,0.0,0.0,58,8.54,,,99.99,meteohub,2013-02-14 21:22:00,
2013-02-14 16:27:00,39.0,25.5,29.96,NW,310,0.0,0.0,58,7.34,,,99.99,meteohub,2013-02-14 21:27:00,
2013-02-14 16:32:00,38.8,25.7,29.96,NW,310,0.0,0.0,59,6.14,,,99.99,meteohub,2013-02-14 21:32:00,
2013-02-14 16:37:00,38.8,25.7,29.96,NW,310,0.0,0.0,59,4.94,,,99.99,meteohub,2013-02-14 21:37:00,
2013-02-14 16:42:00,38.7,26.1,29.96,NW,310,0.0,0.0,60,3.74,,,99.99,meteohub,2013-02-14 21:42:00,
2013-02-14 16:47:00,38.7,26.4,29.96,NW,310,0.0,0.0,61,2.54,,,99.99,meteohub,2013-02-14 21:47:00,
2013-02-14 16:52:00,38.5,26.6,29.96,NW,310,0.0,0.0,62,1.46,,,99.99,meteohub,2013-02-14 21:52:00,
2013-02-14 16:57:00,38.1,25.9,29.96,NW,310,0.0,0.0,61,0.22,,,99.99,meteohub,2013-02-14 21:57:00,
2013-02-14 17:02:00,38.1,26.2,29.96,NW,310,0.0,0.0,62,0.00,,,99.99,meteohub,2013-02-14 22:02:00,
2013-02-14 17:07:00,37.9,26.1,29.97,NW,310,0.0,0.0,62,0.00,,,99.99,meteohub,2013-02-14 22:07:00,
2013-02-14 17:12:00,37.8,26.2,29.98,NW,310,0.0,0.0,63,0.00,,,99.99,meteohub,2013-02-14 22:12:00,
2013-02-14 17:17:00,37.6,26.1,29.98,NW,310,0.0,0.0,63,0.00,,,99.99,meteohub,2013-02-14 22:17:00,
2013-02-14 17:22:00,37.2,26.2,29.98,NW,310,0.0,0.0,64,0.00,,,99.99,meteohub,2013-02-14 22:22:00,
2013-02-14 17:27:00,37.0,26.4,29.98,NW,310,0.0,0.0,65,0.00,,,99.99,meteohub,2013-02-14 22:27:00,
2013-02-14 17:32:00,36.9,25.9,29.98,NW,310,0.0,0.0,64,0.00,,,99.99,meteohub,2013-02-14 22:32:00,
2013-02-14 17:37:00,36.7,26.1,29.99,NW,310,0.0,0.0,65,0.00,,,99.99,meteohub,2013-02-14 22:37:00,
2013-02-14 17:42:00,36.3,26.1,29.99,NW,310,0.0,0.0,66,0.00,,,99.99,meteohub,2013-02-14 22:42:00,
2013-02-14 17:47:00,36.0,26.4,29.99,NW,310,0.0,0.0,68,0.00,,,99.99,meteohub,2013-02-14 22:47:00,
2013-02-14 17:52:00,35.6,26.1,29.99,NW,310,0.0,0.0,68,0.00,,,99.99,meteohub,2013-02-14 22:52:00,
2013-02-14 17:57:00,35.2,25.7,29.98,NW,310,0.0,0.0,68,0.00,,,99.99,meteohub,2013-02-14 22:57:00,
2013-02-14 18:02:00,35.1,25.9,29.98,NW,310,0.0,0.0,69,0.00,,,99.99,meteohub,2013-02-14 23:02:00,
2013-02-14 18:07:00,34.7,25.5,29.99,NW,310,0.0,0.0,69,0.00,,,99.99,meteohub,2013-02-14 23:07:00,
2013-02-14 18:12:00,34.3,25.2,29.99,NW,310,0.0,0.0,69,0.00,,,99.99,meteohub,2013-02-14 23:12:00,
2013-02-14 18:17:00,34.2,25.3,29.99,NW,310,0.0,0.0,70,0.00,,,99.99,meteohub,2013-02-14 23:17:00,
2013-02-14 18:22:00,34.0,25.5,29.98,NW,310,0.0,0.0,71,0.00,,,99.99,meteohub,2013-02-14 23:22:00,
2013-02-14 18:27:00,33.6,24.8,29.98,NW,310,0.0,0.0,70,0.00,,,99.99,meteohub,2013-02-14 23:27:00,
2013-02-14 18:32:00,33.4,25.0,29.98,NW,310,0.0,0.0,71,0.00,,,99.99,meteohub,2013-02-14 23:32:00,
2013-02-14 18:37:00,33.1,24.6,29.98,NW,310,0.0,0.0,71,0.00,,,99.99,meteohub,2013-02-14 23:37:00,
2013-02-14 18:42:00,32.9,24.8,29.98,NW,310,0.0,0.0,72,0.00,,,99.99,meteohub,2013-02-14 23:42:00,
2013-02-14 18:47:00,32.7,24.6,29.99,NW,310,0.0,0.0,72,0.00,,,99.99,meteohub,2013-02-14 23:47:00,
2013-02-14 18:52:00,32.5,24.8,29.99,NW,310,0.0,0.0,73,0.00,,,99.99,meteohub,2013-02-14 23:52:00,
2013-02-14 18:57:00,32.5,24.8,29.99,NW,310,0.0,0.0,73,0.00,,,99.99,meteohub,2013-02-14 23:57:00,
2013-02-14 19:02:00,32.4,24.6,29.99,NW,310,0.0,0.0,73,0.00,,,99.99,meteohub,2013-02-15 00:02:00,
2013-02-14 19:07:00,32.2,24.8,30.00,NW,310,0.0,0.0,74,0.00,,,0.00,meteohub,2013-02-15 00:07:00,
2013-02-14 19:12:00,32.0,25.0,30.00,NW,310,0.0,0.0,75,0.00,,,0.00,meteohub,2013-02-15 00:12:00,
2013-02-14 19:17:00,31.8,25.2,30.00,NW,310,0.0,0.0,76,0.00,,,0.00,meteohub,2013-02-15 00:17:00,
2013-02-14 19:22:00,31.6,25.3,30.00,NW,310,0.0,0.0,77,0.00,,,0.00,meteohub,2013-02-15 00:22:00,
2013-02-14 19:27:00,31.5,25.3,30.00,NW,310,0.0,0.0,78,0.00,,,0.00,meteohub,2013-02-15 00:27:00,
2013-02-14 19:32:00,31.3,25.5,30.00,NW,310,0.0,0.0,79,0.00,,,0.00,meteohub,2013-02-15 00:32:00,
2013-02-14 19:37:00,31.1,25.7,30.00,NW,310,0.0,0.0,80,0.00,,,0.00,meteohub,2013-02-15 00:37:00,
2013-02-14 19:42:00,30.9,25.5,30.00,NW,310,0.0,0.0,80,0.00,,,0.00,meteohub,2013-02-15 00:42:00,
2013-02-14 19:47:00,30.7,25.3,30.00,NW,310,0.0,0.0,80,0.00,,,0.00,meteohub,2013-02-15 00:47:00,
2013-02-14 19:52:00,30.6,25.3,30.00,NW,310,0.0,0.0,81,0.00,,,0.00,meteohub,2013-02-15 00:52:00,
2013-02-14 19:57:00,30.4,25.3,30.00,NW,310,0.0,0.0,81,0.00,,,0.00,meteohub,2013-02-15 00:57:00,
2013-02-14 20:02:00,30.0,25.2,30.00,NW,310,0.0,0.0,82,0.00,,,0.00,meteohub,2013-02-15 01:02:00,
2013-02-14 20:07:00,29.8,25.0,30.00,NW,310,0.0,0.0,82,0.00,,,0.00,meteohub,2013-02-15 01:07:00,
2013-02-14 20:12:00,29.7,25.2,30.00,NW,310,0.0,0.0,83,0.00,,,0.00,meteohub,2013-02-15 01:12:00,
2013-02-14 20:17:00,29.7,25.2,30.00,NW,310,0.0,0.0,83,0.00,,,0.00,meteohub,2013-02-15 01:17:00,
2013-02-14 20:22:00,29.5,25.0,30.00,NW,310,0.0,0.0,83,0.00,,,0.00,meteohub,2013-02-15 01:22:00,
2013-02-14 20:27:00,29.1,24.6,30.00,NW,310,0.0,0.0,83,0.00,,,0.00,meteohub,2013-02-15 01:27:00,
2013-02-14 20:32:00,28.9,24.4,30.00,NW,310,0.0,0.0,83,0.00,,,0.00,meteohub,2013-02-15 01:32:00,
2013-02-14 20:37:00,28.8,24.6,30.01,NW,310,0.0,0.0,84,0.00,,,0.00,meteohub,2013-02-15 01:37:00,
2013-02-14 20:42:00,28.8,24.6,30.01,NW,310,0.0,0.0,84,0.00,,,0.00,meteohub,2013-02-15 01:42:00,
2013-02-14 20:47:00,28.6,24.6,30.01,NW,310,0.0,0.0,85,0.00,,,0.00,meteohub,2013-02-15 01:47:00,
2013-02-14 20:52:00,28.6,24.6,30.01,NW,310,0.0,0.0,85,0.00,,,0.00,meteohub,2013-02-15 01:52:00,
2013-02-14 20:57:00,28.2,24.3,30.00,NW,310,0.0,0.0,85,0.00,,,0.00,meteohub,2013-02-15 01:57:00,
2013-02-14 21:02:00,28.2,24.3,30.00,NW,310,0.0,0.0,85,0.00,,,0.00,meteohub,2013-02-15 02:02:00,
2013-02-14 21:07:00,28.0,24.4,30.01,NW,310,0.0,0.0,86,0.00,,,0.00,meteohub,2013-02-15 02:07:00,
2013-02-14 21:12:00,28.0,24.6,30.01,NW,310,0.0,0.0,87,0.00,,,0.00,meteohub,2013-02-15 02:12:00,
2013-02-14 21:17:00,28.0,24.6,30.01,NW,310,0.0,0.0,87,0.00,,,0.00,meteohub,2013-02-15 02:17:00,
2013-02-14 21:22:00,28.0,24.6,30.01,NW,310,0.0,0.0,87,0.00,,,0.00,meteohub,2013-02-15 02:22:00,
2013-02-14 21:27:00,28.0,24.6,30.01,NW,310,0.0,0.0,87,0.00,,,0.00,meteohub,2013-02-15 02:27:00,
2013-02-14 21:32:00,27.9,24.3,30.01,NW,310,0.0,0.0,86,0.00,,,0.00,meteohub,2013-02-15 02:32:00,
2013-02-14 21:37:00,27.9,24.4,30.02,NW,310,0.0,0.0,87,0.00,,,0.00,meteohub,2013-02-15 02:37:00,
2013-02-14 21:42:00,27.9,24.8,30.01,NW,310,0.0,0.0,88,0.00,,,0.00,meteohub,2013-02-15 02:42:00,
2013-02-14 21:47:00,27.7,24.6,30.01,NW,310,0.0,0.0,88,0.00,,,0.00,meteohub,2013-02-15 02:47:00,
2013-02-14 21:52:00,27.7,24.6,30.01,NW,310,0.0,0.0,88,0.00,,,0.00,meteohub,2013-02-15 02:52:00,
2013-02-14 21:57:00,27.7,24.6,30.01,NW,310,0.0,0.0,88,0.00,,,0.00,meteohub,2013-02-15 02:57:00,
2013-02-14 22:02:00,27.7,24.6,30.01,NW,310,0.0,0.0,88,0.00,,,0.00,meteohub,2013-02-15 03:02:00,
2013-02-14 22:07:00,27.7,24.6,30.02,NW,310,0.0,0.0,88,0.00,,,0.00,meteohub,2013-02-15 03:07:00,
2013-02-14 22:12:00,27.7,24.6,30.01,NW,310,0.0,0.0,88,0.00,,,0.00,meteohub,2013-02-15 03:12:00,
2013-02-14 22:17:00,27.9,24.8,30.01,NW,310,0.0,0.0,88,0.00,,,0.00,meteohub,2013-02-15 03:17:00,
2013-02-14 22:22:00,27.9,24.8,30.01,NW,310,0.0,0.0,88,0.00,,,0.00,meteohub,2013-02-15 03:22:00,
2013-02-14 22:27:00,27.9,24.8,30.01,NW,310,0.0,0.0,88,0.00,,,0.00,meteohub,2013-02-15 03:27:00,
2013-02-14 22:32:00,27.9,24.8,30.02,NW,310,0.0,0.0,88,0.00,,,0.00,meteohub,2013-02-15 03:32:00,
2013-02-14 22:37:00,27.9,24.8,30.01,NW,310,0.0,0.0,88,0.00,,,0.00,meteohub,2013-02-15 03:37:00,
2013-02-14 22:42:00,27.9,24.8,30.01,NW,310,0.0,0.0,88,0.00,,,0.00,meteohub,2013-02-15 03:42:00,
2013-02-14 22:47:00,28.0,25.0,30.01,NW,310,0.0,0.0,88,0.00,,,0.00,meteohub,2013-02-15 03:47:00,
2013-02-14 22:52:00,28.0,25.0,30.02,NW,310,0.0,0.0,88,0.00,,,0.00,meteohub,2013-02-15 03:52:00,
2013-02-14 22:57:00,28.0,25.2,30.01,NW,310,0.0,0.0,89,0.00,,,0.00,meteohub,2013-02-15 03:57:00,
2013-02-14 23:02:00,28.0,25.2,30.01,NW,310,0.0,0.0,89,0.00,,,0.00,meteohub,2013-02-15 04:02:00,
2013-02-14 23:07:00,28.0,25.2,30.01,NW,310,0.0,0.0,89,0.00,,,0.00,meteohub,2013-02-15 04:07:00,
2013-02-14 23:12:00,28.0,25.2,30.01,NW,310,0.0,0.0,89,0.00,,,0.00,meteohub,2013-02-15 04:12:00,
2013-02-14 23:17:00,28.0,25.2,30.01,NW,310,0.0,0.0,89,0.00,,,0.00,meteohub,2013-02-15 04:17:00,
2013-02-14 23:22:00,28.2,25.3,30.01,NW,310,0.0,0.0,89,0.00,,,0.00,meteohub,2013-02-15 04:22:00,
2013-02-14 23:27:00,28.2,25.3,30.01,NW,310,0.0,0.0,89,0.00,,,0.00,meteohub,2013-02-15 04:27:00,
2013-02-14 23:32:00,28.2,25.3,30.01,NW,310,0.0,0.0,89,0.00,,,0.00,meteohub,2013-02-15 04:32:00,
2013-02-14 23:37:00,28.2,25.3,30.01,NW,310,0.0,0.0,89,0.00,,,0.00,meteohub,2013-02-15 04:37:00,
2013-02-14 23:42:00,28.2,25.3,30.01,NW,310,0.0,0.0,89,0.00,,,0.00,meteohub,2013-02-15 04:42:00,
2013-02-14 23:47:00,28.4,25.5,30.01,NW,310,0.0,0.0,89,0.00,,,0.00,meteohub,2013-02-15 04:47:00,
2013-02-14 23:52:00,28.6,26.1,30.01,NW,310,0.0,0.0,90,0.00,,,0.00,meteohub,2013-02-15 04:52:00,
2013-02-14 23:57:00,28.6,26.1,30.01,NW,310,0.0,0.0,90,0.00,,,0.00,meteohub,2013-02-15 04:57:00,